Aérodrome :
LOGIN :

S'inscrire | Disclaimer

   EN    FR    IT 

 










Légende :    VFR   VFR Marginal   IFR   IFR Intensif   IFR Très Intensif
Visi : 
Plafond : 
>= 8 km
>= 3000ft
5 à 8 km
1000 à 3000 ft
1500m à 5 km
500 à 1000 ft
800 à 1500m
200 à 500 ft
< 800m
< 200 ft
Symboles :   Orages  Brouillard  Fortes neiges  Fortes précipitations  Vent > 20 kt
SIGMETs :   Divers  Orages  Givrage  Turbulence  Onde Orograph.  Cendres Volcan.







- Altitude de l'aérodrome : 446 ft
- Code IATA : VNE
- Voir les cartes d'approche


LFRV - Vannes-Meucon

DERNIER METAR :
  • 131530Z AUTO 06011KT 9000 -RA OVC047 02/01 Q1008

METARs EXPIRÉS :
  • 131500Z AUTO 06013KT 8000 BKN048 OVC054 02/01 Q1008
  • 131430Z AUTO 07011KT 9999 -RADZ OVC049 02/01 Q1008
  • 131400Z AUTO 08010KT 8000 -RA NSC 02/01 Q1007
  • 131330Z AUTO 07013KT 8000 -RA NSC 02/01 Q1007
  • 131300Z AUTO 07012KT 7000 -RADZ FEW006/// OVC050/// ///TCU 02/01 Q1007

TAF N/A
Pas de NOTAMs connus pour ce terrain.



MET'MAP, la Météo Aéronautique d'un coup d'oeil ! - Copyright ORBIFLY Décembre 2007 - Disclaimer

ORBIFLY MET'MAP TEAM :

Programmation & Développement : Alexandra Zaïnal
Conception & Développement : Baudouin d'Aumeries
Co-Programmation & Développement : Marc-Olivier Méhu
Soutien technique & logistique : Manuel Goepfert

Contact : metmap@orbifly.com




SOURCES & CREDITS :

   NOAA